Meteo4 di Emilio Bellavite Il primo osservatorio Meteo di Verona  
 
domenica 23 luglio 2017
 
 
dati in tempo reale
Di seguito i dati in tempo reale delle stazioni on line della rete di Meteo4. Cliccando sul link della stazione, ove presente, si accederà al sito web personale.
Stazioni online
Località Giorno Ora Temp. Umid. Relat. Dew Point Press. Atm. Velocità Vento Direz. Vento Precip. Temp.
Min
Temp.
Max
Abano (PD) 23/07/17 20.35 32.3 °C 49 % 20.3 °C 1007.9 hPa 1.6 Km/h W 0.0 mm  23.9 °C 35.4 °C
Acquaviva delle Fonti (BA) 23/07/17 20.33 28.6 °C 54 % 18.3 °C 1014.0 hPa 2.8 Km/h NNE 0.0 mm  23.8 °C 33.2 °C
Ala (TN) 22/07/17 20.15 0.0 °C 0 % 0.0 °C 0.0 hPa 0.0 Km/h N 0.0 mm  21.3 °C 31.7 °C
Alleghe (BL) 23/07/17 20.33 19.6 °C 81 % 16.2 °C 1003.8 hPa 1.9 Km/h NE 0.0 mm  15.1 °C 25.6 °C
Alleghe Lago (BL) 23/07/17 20.33 21.2 °C 76 % 16.8 °C 1008.0 hPa 6.3 Km/h S 0.0 mm  15.6 °C 24.4 °C
Ancona (AN) 20/07/17 07.55 26.8 °C 49 % 15.2 °C 1014.3 hPa 1.6 Km/h W 0.0 mm  20.2 °C 26.8 °C
Arquà Polesine (RO) 23/07/17 20.33 29.2 °C 58 % 20.1 °C 1011.5 hPa 0.0 Km/h NW 0.0 mm  20.6 °C 35.0 °C
Arzignano loc. Castello (VI) 23/07/17 19.45 30.7 °C 55 % 20.6 °C 1008.7 hPa 1.3 Km/h SSW 0.0 mm  22.2 °C 32.5 °C
Arzignano Pugnello (VI) 23/07/17 20.33 28.3 °C 59 % 19.4 °C 1008.1 hPa 0.0 Km/h ENE 0.0 mm  21.3 °C 32.1 °C
Arzignano San Bortolo (VI) 23/07/17 20.43 29.2 °C 57 % 19.8 °C 1007.3 hPa 9.7 Km/h SW 0.0 mm  23.3 °C 31.7 °C
Arzignano Tezze (VI) 22/07/17 22.19 24.3 °C 72 % 19.0 °C 1012.4 hPa 0.0 Km/h E 0.0 mm  20.1 °C 36.7 °C
Asiago Rifugio Val Formica (VI) 23/07/17 20.42 15.2 °C 83 % 12.3 °C 1011.4 hPa 0.0 Km/h N 0.0 mm  9.9 °C 20.2 °C
Avenza-Carrara (MS) 23/07/17 20.25 28.0 °C 61 % 19.8 °C 1015.8 hPa 0.0 Km/h --- 0.0 mm  21.9 °C 31.6 °C
Avio (TN) 23/07/17 20.34 29.6 °C 51 % 18.4 °C 1009.9 hPa 3.0 Km/h S 0.0 mm  21.5 °C 33.9 °C
Badia Calavena loc. San Valentino (VR) 23/07/17 20.33 23.6 °C 69 % 17.5 °C 1008.1 hPa 6.4 Km/h SSE 0.0 mm  19.9 °C 27.4 °C
Barcellona P.G. Centro (ME) 23/07/17 20.33 27.9 °C 69 % 21.7 °C 1014.7 hPa 0.0 Km/h NNW 0.0 mm  24.9 °C 34.4 °C
Barcellona Pozzo di Gotto (ME) 23/07/17 20.33 28.2 °C 66 % 21.2 °C 1013.9 hPa 0.0 Km/h NNW 0.0 mm  25.1 °C 33.4 °C
Bassano del Grappa (VI) 23/07/17 08.00 24.6 °C 72 % 19.2 °C 1000.3 hPa 0.0 Km/h --- 0.0 mm  22.6 °C 24.8 °C
Bellaria Igea Marina (RN) 23/07/17 20.33 28.4 °C 62 % 20.4 °C 1010.8 hPa 8.0 Km/h SE 0.0 mm  23.8 °C 31.3 °C
Bellaria Igea Marina2 (RN) 23/07/17 20.33 28.6 °C 65 % 21.3 °C 1010.4 hPa 6.4 Km/h SE 0.0 mm  24.0 °C 31.8 °C
Belluno Castion (BL) 23/07/17 20.30 20.4 °C 91 % 18.9 °C 1009.9 hPa 0.0 Km/h --- 2.0 mm  18.1 °C 29.1 °C
Besenello (TN) 23/07/17 20.34 27.7 °C 49 % 16.0 °C 1010.4 hPa 6.5 Km/h NE 0.0 mm  18.0 °C 33.9 °C
Besozzo (VA) 23/07/17 20.32 27.3 °C 59 % 18.6 °C 1009.4 hPa 0.0 Km/h --- 0.2 mm  17.0 °C 30.8 °C
Bisignano (CS) 23/07/17 20.33 32.0 °C 23 % 8.3 °C 1010.1 hPa 4.0 Km/h SE 0.0 mm  26.3 °C 38.3 °C
Bitti (NU) 23/07/17 20.31 28.7 °C 34 % 11.2 °C 1017.3 hPa 0.0 Km/h SSW 0.0 mm  21.0 °C 33.5 °C
Bolognano di Arco (TN) 23/07/17 20.34 29.0 °C 55 % 19.0 °C 1009.2 hPa 6.9 Km/h S 0.0 mm  20.2 °C 31.7 °C
Bonorva (SS) 23/07/17 20.30 30.1 °C 48 % 17.9 °C 1013.3 hPa 0.0 Km/h --- 0.0 mm  20.4 °C 37.4 °C
Borgo Valsugana (TN) 23/07/17 20.41 27.2 °C 47 % 14.9 °C 1010.0 hPa 2.1 Km/h SSE 0.0 mm  19.4 °C 32.5 °C
Borgofranco d'Ivrea (TO) 23/07/17 20.33 27.1 °C 68 % 20.7 °C 1011.3 hPa 0.0 Km/h SSW 3.1 mm  18.6 °C 34.3 °C
Borore (NU) 23/07/17 20.34 29.7 °C 47 % 17.2 °C 1012.2 hPa 8.2 Km/h S 0.0 mm  20.2 °C 37.0 °C
Brebbia (VA) 23/07/17 19.30 28.8 °C 59 % 20.0 °C 1010.5 hPa 0.0 Km/h WNW 0.0 mm  18.9 °C 31.2 °C
Bresega (PD) 23/07/17 20.33 31.2 °C 55 % 21.1 °C 1009.4 hPa 0.0 Km/h SSW 0.0 mm  21.6 °C 34.6 °C
Brolo c/da Parrazzà (ME) 23/07/17 20.24 27.3 °C 71 % 21.6 °C 1015.2 hPa 0.0 Km/h WSW 0.0 mm  26.1 °C 32.7 °C
Brugine2 (PD) 23/07/17 20.27 29.3 °C 58 % 20.2 °C 1009.8 hPa 0.0 Km/h S 0.0 mm  21.3 °C 34.5 °C
Buccheri (SR) 23/07/17 20.11 27.6 °C 55 % 17.7 °C 1016.0 hPa 0.0 Km/h WSW 0.0 mm  25.3 °C 33.9 °C
Budoia (PN) 23/07/17 20.30 21.8 °C 94 % 20.8 °C 1011.0 hPa 6.4 Km/h NW 20.4 mm  21.7 °C 31.2 °C
Ca' Gallo (PU) 23/07/17 20.42 27.2 °C 57 % 17.9 °C 1008.7 hPa 5.5 Km/h ENE 0.0 mm  21.0 °C 35.6 °C
Calcinato (BS) 23/07/17 20.33 29.4 °C 60 % 20.8 °C 1011.9 hPa 4.8 Km/h NNW 0.0 mm  21.3 °C 31.9 °C
Calliano (TN) 23/07/17 20.33 26.9 °C 52 % 16.2 °C 1008.9 hPa 14.5 Km/h SSE 0.0 mm  17.1 °C 34.3 °C
Caltabellotta (AG) 23/07/17 20.30 28.9 °C 49 % 17.1 °C 1011.7 hPa 0.0 Km/h ESE 0.0 mm  25.1 °C 34.3 °C
Cammarata (AG) 23/07/17 20.33 25.9 °C 59 % 17.3 °C 1013.4 hPa 8.6 Km/h W 0.0 mm  25.2 °C 36.7 °C
Campoformido (UD) 23/07/17 20.30 26.1 °C 78 % 22.1 °C 1011.5 hPa 0.0 Km/h ENE 0.0 mm  21.3 °C 31.1 °C
Camposampiero (PD) 23/07/17 20.39 30.7 °C 43 % 16.7 °C 1010.0 hPa 0.0 Km/h WNW 0.0 mm  30.6 °C 32.9 °C
Capodimonte (VT) 23/07/17 20.30 27.5 °C 58 % 18.5 °C 1014.2 hPa 0.0 Km/h N 0.0 mm  20.5 °C 32.3 °C
Caprarola Centro Storico (VT) 23/07/17 20.33 26.0 °C 62 % 18.2 °C 1015.0 hPa 0.0 Km/h SSE 0.0 mm  20.6 °C 33.8 °C
Caprino (VR) 23/07/17 20.33 28.6 °C 60 % 20.1 °C 1008.0 hPa 0.0 Km/h SW 0.0 mm  21.2 °C 32.1 °C
Carceri (PD) 23/07/17 20.34 31.4 °C 49 % 19.4 °C 1009.4 hPa 4.8 Km/h WSW 0.0 mm  22.1 °C 34.7 °C
Carmignano loc. Seano (PO) 23/07/17 20.30 28.2 °C 55 % 18.3 °C 1013.2 hPa 0.0 Km/h SW 0.0 mm  20.6 °C 33.5 °C
Carpi (MO) 23/07/17 20.33 31.1 °C 41 % 16.3 °C 1009.8 hPa 8.9 Km/h WSW 0.0 mm  22.8 °C 35.9 °C
Cartigliano (VI) 23/07/17 20.33 29.3 °C 62 % 21.3 °C 1008.8 hPa 3.9 Km/h NE 0.0 mm  23.1 °C 34.1 °C
Cartura (PD) 23/07/17 20.34 29.4 °C 54 % 19.2 °C 1008.5 hPa 2.0 Km/h SW 0.0 mm  21.8 °C 34.8 °C
Casotto (VI) 23/07/17 20.43 25.2 °C 62 % 17.2 °C 1008.4 hPa 0.0 Km/h NE 0.0 mm  18.6 °C 31.4 °C
Cassano Magnago (VA) 23/07/17 20.44 28.3 °C 59 % 19.5 °C 1012.1 hPa 8.0 Km/h WSW 0.0 mm  19.1 °C 32.8 °C
Castelfranco Veneto (TV) 23/07/17 20.35 28.3 °C 67 % 21.6 °C 1009.5 hPa 1.6 Km/h ENE 0.0 mm  23.1 °C 33.8 °C
Castelfranco Veneto2 (TV) 23/07/17 20.38 26.8 °C 51 % 15.8 °C 1011.1 hPa 0.0 Km/h SSE 0.0 mm  26.8 °C 26.8 °C
Castelgomberto (VI) 23/07/17 20.34 31.1 °C 50 % 19.4 °C 1008.9 hPa 2.4 Km/h WSW 0.0 mm  22.6 °C 33.9 °C
Castelnuovo V.C. (PI) 23/07/17 20.31 22.8 °C 76 % 18.3 °C 1012.8 hPa 0.0 Km/h S 0.2 mm  17.2 °C 32.1 °C
Castiglione del Lago (PG) 19/07/17 13.40 30.6 °C 27 % 9.5 °C 1018.5 hPa 4.8 Km/h N 0.0 mm  15.0 °C 30.7 °C
Cavaria con Premezzo (VA) 23/07/17 20.33 27.9 °C 61 % 19.4 °C 1009.5 hPa 1.0 Km/h SSE 1.0 mm  19.3 °C 31.4 °C
Cefalù (PA) 20/07/17 00.52 23.8 °C 69 % 17.8 °C 1014.1 hPa 3.2 Km/h SSE 0.0 mm  22.1 °C 28.0 °C
Cerea (VR) 23/07/17 20.30 30.6 °C 53 % 19.9 °C 1009.9 hPa 1.6 Km/h WSW 0.0 mm  22.0 °C 35.6 °C
Cerea2 (VR) 23/07/17 20.40 31.1 °C 43 % 17.0 °C 1008.0 hPa 2.9 Km/h SSW 0.0 mm  22.5 °C 34.8 °C
Cismon del Grappa loc. Corlo (VI) 23/07/17 20.34 24.8 °C 69 % 18.7 °C 1013.0 hPa 10.0 Km/h SE 1.5 mm  19.4 °C 29.7 °C
Cittadella (PD) 23/07/17 20.34 29.4 °C 60 % 20.8 °C 1009.5 hPa 0.7 Km/h SE 0.0 mm  23.9 °C 34.1 °C
Civita Castellana (VT) 23/07/17 20.34 29.7 °C 47 % 17.2 °C 1014.4 hPa 9.3 Km/h NW 0.0 mm  21.1 °C 36.0 °C
Cogollo del Cengio (VI) 23/07/17 20.31 29.0 °C 27 % 8.1 °C 1010.4 hPa 9.2 Km/h SE 0.0 mm  20.5 °C 31.9 °C
Colle del Piccolo San Bernardo La Thuile (AO) 23/07/17 20.41 10.5 °C 84 % 7.8 °C 1013.4 hPa 19.3 Km/h SSW 0.3 mm  7.6 °C 13.9 °C
Colle S. Lucia Posalz (BL) 23/07/17 20.34 18.4 °C 70 % 12.8 °C 1025.4 hPa 0.0 Km/h S 0.0 mm  13.4 °C 24.2 °C
Cologna Veneta Sant'Andrea (VR) 23/07/17 20.35 28.6 °C 67 % 21.8 °C 1008.1 hPa 1.6 Km/h WSW 0.0 mm  20.9 °C 33.3 °C
Colognola ai Colli (VR) 23/07/17 20.20 30.0 °C 57 % 20.6 °C 1010.9 hPa 0.0 Km/h N 0.0 mm  21.7 °C 34.0 °C
Contrada Dosso Gervasio (VR) 23/07/17 20.30 22.8 °C 72 % 17.2 °C 1009.7 hPa 5.0 Km/h SW 0.0 mm  19.3 °C 26.5 °C
Corrubio di S. Anna d'Alfaedo (VR) 23/07/17 20.40 23.8 °C 70 % 18.0 °C 1011.5 hPa 0.0 Km/h SE 0.0 mm  19.7 °C 26.3 °C
Cosseria Lidora (SV) 23/07/17 20.30 21.8 °C 89 % 19.9 °C 1011.3 hPa 11.3 Km/h SE 0.0 mm  18.4 °C 24.4 °C
Costa di Vittorio Veneto (TV) 23/07/17 20.45 25.5 °C 84 % 22.6 °C 1009.7 hPa 0.0 Km/h S 0.8 mm  22.0 °C 30.7 °C
Crespano del Grappa (TV) 23/07/17 20.44 24.8 °C 72 % 19.4 °C 1011.1 hPa 3.7 Km/h NNE 0.0 mm  21.3 °C 30.6 °C
Dorno (PV) 23/07/17 20.33 27.3 °C 65 % 20.1 °C 1010.0 hPa 8.7 Km/h SSW 0.0 mm  21.2 °C 32.3 °C
Dossobuono (VR) 23/07/17 20.34 31.1 °C 54 % 20.6 °C 1011.6 hPa 6.4 Km/h W 0.0 mm  22.5 °C 33.0 °C
Esine (BS) 23/07/17 20.32 27.2 °C 60 % 18.8 °C 1008.9 hPa 0.0 Km/h SSE 0.0 mm  20.6 °C 31.3 °C
Falzè di Piave (TV) 23/07/17 20.34 25.7 °C 74 % 20.7 °C 1011.8 hPa 3.0 Km/h ESE 0.2 mm  21.3 °C 34.3 °C
Farra di Soligo (TV) 23/07/17 20.28 25.1 °C 83 % 21.8 °C 1010.7 hPa 0.0 Km/h N 0.0 mm  22.3 °C 33.7 °C
Favaro Veneto (VE) 23/07/17 20.30 29.0 °C 70 % 23.0 °C 1010.4 hPa 9.7 Km/h SSE 2.0 mm  23.4 °C 30.8 °C
Feltre Celarda (BL) 23/07/17 20.30 24.4 °C 76 % 19.9 °C 1009.5 hPa 0.0 Km/h WSW 0.0 mm  17.6 °C 31.3 °C
Ferrara di M.B. (VR) 23/07/17 20.05 17.9 °C 74 % 13.2 °C 1009.2 hPa 3.2 Km/h N 0.0 mm  14.8 °C 22.9 °C
Fiavè loc. Ballino (TN) 23/07/17 20.33 21.3 °C 65 % 14.5 °C 1011.2 hPa 2.7 Km/h W 0.0 mm  16.3 °C 26.9 °C
Filo di Argenta (FE) 23/07/17 20.35 29.3 °C 56 % 19.6 °C 1011.1 hPa 7.6 Km/h ESE 0.0 mm  21.8 °C 35.1 °C
Fogliano Redipuglia (GO) 23/07/17 20.41 26.7 °C 68 % 20.3 °C 1011.4 hPa 7.7 Km/h SE 0.0 mm  21.6 °C 32.6 °C
Foligno (PG) 23/07/17 20.20 32.6 °C 35 % 15.2 °C 1012.5 hPa 8.0 Km/h W 0.0 mm  22.1 °C 36.3 °C
Fontanafredda (PN) 23/07/17 20.34 21.4 °C 94 % 20.4 °C 1010.8 hPa 1.9 Km/h SE 16.0 mm  19.9 °C 30.7 °C
Gallio (VI) 22/07/17 13.00 22.9 °C 65 % 15.9 °C 1012.1 hPa 8.0 Km/h SE 0.0 mm  15.9 °C 22.9 °C
Gardolo (TN) 23/07/17 20.33 28.2 °C 53 % 17.7 °C 1009.9 hPa 18.7 Km/h NNE 0.0 mm  18.1 °C 32.0 °C
Genova Albaro (GE) 23/07/17 20.33 24.5 °C 81 % 21.0 °C 1019.0 hPa 9.2 Km/h S 0.0 mm  22.4 °C 27.3 °C
Genova Erzelli (GE) 23/07/17 20.27 24.8 °C 85 % 22.1 °C 1012.7 hPa 12.9 Km/h SW 0.0 mm  23.1 °C 26.4 °C
Gradisca d'Isonzo (GO) 23/07/17 20.34 26.8 °C 66 % 19.9 °C 1011.5 hPa 0.0 Km/h NE 0.0 mm  19.6 °C 35.2 °C
Iglesias (CI) 23/07/17 20.44 29.2 °C 55 % 19.2 °C 1015.8 hPa 0.0 Km/h W 0.0 mm  22.9 °C 32.2 °C
Isola d'Elba Marina di Campo (LI) 23/07/17 20.15 26.4 °C 87 % 24.1 °C 579.8 hPa 6.4 Km/h ENE 0.0 mm  20.9 °C 29.8 °C
Jesolo (VE) 23/07/17 15.30 29.2 °C 0 % 0.0 °C 1008.1 hPa 8.0 Km/h ESE 112.4 mm  24.8 °C 29.6 °C
Lavis (TN) 23/07/17 20.30 29.2 °C 48 % 17.2 °C 1009.9 hPa 20.9 Km/h SSE 0.0 mm  19.1 °C 32.1 °C
Laxolo (BG) 23/07/17 20.36 25.7 °C 61 % 17.6 °C 1013.3 hPa 0.0 Km/h N 0.7 mm  16.7 °C 28.5 °C
Legnago (VR) 23/07/17 20.35 31.6 °C 54 % 21.2 °C 1010.0 hPa 0.0 Km/h --- 0.0 mm  22.9 °C 34.6 °C
Lesmo (MB) 22/07/17 02.55 18.2 °C 89 % 16.3 °C 0.0 hPa 0.0 Km/h --- 0.0 mm  18.0 °C 18.3 °C
Loano (SV) 23/07/17 20.35 25.5 °C 83 % 22.4 °C 1012.6 hPa 3.0 Km/h SE 0.0 mm  23.8 °C 27.1 °C
Lovere (BG) 23/07/17 20.22 27.4 °C 28 % 7.3 °C 1011.0 hPa 5.0 Km/h SW 0.0 mm  20.5 °C 30.7 °C
Lugagnano (VR) 23/07/17 20.34 30.7 °C 56 % 21.1 °C 1008.4 hPa 3.2 Km/h NW 0.0 mm  22.3 °C 34.0 °C
Lusiana Sciessere (VI) 23/07/17 20.33 24.3 °C 61 % 16.3 °C 1016.1 hPa 0.0 Km/h SSE 0.0 mm  19.4 °C 27.2 °C
Magnano (BI) 23/07/17 20.33 25.3 °C 76 % 20.8 °C 1010.0 hPa 1.0 Km/h N 5.1 mm  16.2 °C 29.3 °C
Malnate San Salvatore (VA) 23/07/17 20.35 24.9 °C 73 % 19.8 °C 1010.8 hPa 0.0 Km/h SW 0.3 mm  18.7 °C 30.2 °C
Marano Vicentino2 (VI) 23/07/17 20.30 30.3 °C 47 % 17.7 °C 1009.8 hPa 0.0 Km/h WSW 0.0 mm  21.4 °C 35.1 °C
Margone (TN) 23/07/17 07.25 18.6 °C 82 % 15.4 °C 1015.9 hPa 4.3 Km/h NNE 0.0 mm  16.9 °C 18.8 °C
Marostica Valle San Floriano (VI) 23/07/17 20.33 27.1 °C 66 % 20.0 °C 1010.6 hPa 0.0 Km/h WNW 0.0 mm  20.9 °C 31.5 °C
Marta (VT) 23/07/17 20.40 27.1 °C 60 % 18.7 °C 1013.8 hPa 7.4 Km/h SSW 0.0 mm  21.3 °C 32.9 °C
Martignano (TN) 23/07/17 20.35 27.4 °C 48 % 15.4 °C 1008.1 hPa 1.6 Km/h E 0.0 mm  19.6 °C 32.4 °C
Masiera di Bagnacavallo (RA) 23/07/17 20.22 30.5 °C 56 % 20.7 °C 1006.5 hPa 2.2 Km/h WSW 0.0 mm  15.2 °C 36.5 °C
Massarosa (LU) 23/07/17 20.34 26.0 °C 70 % 20.1 °C 1002.7 hPa 3.6 Km/h SW 0.0 mm  21.8 °C 30.6 °C
Massone di Arco (TN) 23/07/17 20.30 28.9 °C 56 % 19.2 °C 1011.0 hPa 13.0 Km/h SSO 0.0 mm  20.6 °C 30.4 °C
Merlara (PD) 23/07/17 20.35 29.2 °C 64 % 21.7 °C 1009.1 hPa 0.0 Km/h --- 0.0 mm  19.8 °C 32.7 °C
Mezzana Bigli (PV) 23/07/17 20.30 26.8 °C 62 % 18.9 °C 1009.4 hPa 1.3 Km/h S 0.0 mm  20.6 °C 32.6 °C
Migliarino (FE) 23/07/17 20.30 29.1 °C 61 % 20.8 °C 1009.0 hPa 7.2 Km/h SE 0.0 mm  22.5 °C 36.0 °C
Miglionico (MT) 23/07/17 20.30 30.1 °C 41 % 15.4 °C 1010.5 hPa 0.0 Km/h --- 0.0 mm  25.2 °C 35.8 °C
Miola di Piné (TN) 23/07/17 20.31 22.8 °C 54 % 13.0 °C 1010.8 hPa 3.9 Km/h S 0.0 mm  15.5 °C 26.7 °C
Mirabella Imbaccari (CT) 23/07/17 20.38 30.7 °C 31 % 11.6 °C 1012.5 hPa 3.7 Km/h NE 0.0 mm  24.6 °C 36.8 °C
Molina (VR) 23/07/17 07.03 18.0 °C 81 % 14.7 °C 1013.8 hPa 3.5 Km/h NE 0.0 mm  17.1 °C 18.2 °C
Monasterolo Torinese (TO) 23/07/17 20.35 25.3 °C 64 % 18.0 °C 1007.0 hPa 0.0 Km/h --- 0.0 mm  18.4 °C 30.2 °C
Moneglia loc. La Secca (GE) 23/07/17 20.30 25.7 °C 85 % 23.0 °C 1013.5 hPa 7.4 Km/h S 0.0 mm  23.7 °C 27.1 °C
Mongrando San Michele (BI) 23/07/17 20.34 24.5 °C 85 % 21.8 °C 1009.8 hPa 0.0 Km/h --- 6.0 mm  15.6 °C 29.7 °C
Montagna in Valtellina (SO) 23/07/17 20.30 27.2 °C 59 % 18.5 °C 1010.3 hPa 0.0 Km/h NNW 0.4 mm  18.5 °C 31.3 °C
Montebello Vicentino loc. Selva (VI) 23/07/17 20.30 29.1 °C 42 % 14.9 °C 1010.8 hPa 2.6 Km/h ENE 0.0 mm  24.2 °C 32.7 °C
Montecchio Maggiore La Valle (VI) 23/07/17 20.43 31.5 °C 48 % 19.1 °C 1004.3 hPa 1.4 Km/h WSW 0.0 mm  22.3 °C 36.8 °C
Montecchio Maggiore Sant'Urbano (VI) 23/07/17 20.44 29.3 °C 49 % 17.4 °C 1014.8 hPa 8.5 Km/h S 0.0 mm  22.7 °C 33.1 °C
Monteforte d'Alpone (VR) 23/07/17 20.35 30.9 °C 51 % 19.6 °C 1008.4 hPa 8.0 Km/h WSW 0.0 mm  22.6 °C 32.9 °C
Montelabbate (PU) 23/07/17 20.45 28.1 °C 54 % 17.8 °C 1011.1 hPa 1.0 Km/h NE 0.0 mm  22.8 °C 32.6 °C
Montespertoli (FI) 23/07/17 20.46 26.1 °C 59 % 17.4 °C 1016.8 hPa 2.9 Km/h NW 0.0 mm  21.1 °C 31.9 °C
Montopoli in val d'Arno Loc. Capanne (PI) 23/07/17 20.30 26.9 °C 65 % 19.8 °C 1013.9 hPa 4.0 Km/h SSW 0.0 mm  19.5 °C 0.0 °C
Montorso Vicentino (VI) 23/07/17 20.30 28.1 °C 61 % 19.8 °C 1009.8 hPa 0.0 Km/h WSW 0.0 mm  22.2 °C 31.4 °C
Morbegno (SO) 23/07/17 20.30 27.1 °C 58 % 18.1 °C 1009.5 hPa 0.0 Km/h SSW 1.0 mm  18.6 °C 30.9 °C
Muzzano (BI) 23/07/17 20.10 24.3 °C 72 % 19.0 °C 1008.6 hPa 1.6 Km/h WNW 3.8 mm  17.7 °C 28.4 °C
Nichelino (TO) 23/07/17 20.35 29.2 °C 50 % 17.7 °C 1008.7 hPa 3.2 Km/h ENE 0.0 mm  20.2 °C 32.2 °C
Novara (NO) 23/07/17 20.30 28.2 °C 61 % 20.0 °C 1010.0 hPa 1.6 Km/h S 0.0 mm  18.8 °C 33.2 °C
Onara extraurbana (PD) 23/07/17 19.04 33.0 °C 51 % 21.5 °C 1009.6 hPa 1.7 Km/h SE 0.0 mm  22.9 °C 33.3 °C
Oristano (OR) 23/07/17 20.30 27.7 °C 74 % 22.6 °C 1013.4 hPa 1.3 Km/h NW 0.0 mm  22.2 °C 33.1 °C
Orosei (NU) 23/07/17 20.36 27.4 °C 76 % 22.8 °C 1013.9 hPa 4.8 Km/h SE 0.0 mm  23.1 °C 29.4 °C
Ortonovo (SP) 23/07/17 20.30 23.8 °C 85 % 21.2 °C 1013.4 hPa 4.1 Km/h ESE 0.0 mm  21.0 °C 28.0 °C
Orvieto (TR) 23/07/17 20.16 29.4 °C 44 % 15.9 °C 1012.8 hPa 2.0 Km/h SSW 0.0 mm  19.6 °C 37.3 °C
Ostana (CN) 23/07/17 20.31 17.1 °C 93 % 16.0 °C 1009.3 hPa 1.6 Km/h S 0.0 mm  11.5 °C 21.1 °C
Ostiano (CR) 23/07/17 20.26 30.9 °C 60 % 22.2 °C 1010.5 hPa 5.0 Km/h N 0.0 mm  22.0 °C 32.9 °C
Ovaro loc. Liariis (UD) 23/07/17 20.25 18.9 °C 95 % 18.1 °C 1012.8 hPa 0.0 Km/h --- 15.2 mm  16.0 °C 28.7 °C
Pace del Mela (ME) 23/07/17 20.31 25.1 °C 73 % 19.9 °C 1016.6 hPa 0.0 Km/h SE 0.0 mm  24.1 °C 34.2 °C
Padergnone (TN) 23/07/17 20.15 27.8 °C 59 % 19.0 °C 1010.2 hPa 1.7 Km/h SSW 0.0 mm  18.0 °C 31.3 °C
Parella (TO) 23/07/17 20.47 25.9 °C 71 % 20.3 °C 1011.4 hPa 3.2 Km/h NW 4.3 mm  17.1 °C 30.3 °C
Pastrengo (VR) 23/07/17 20.48 29.1 °C 56 % 19.4 °C 1012.1 hPa 0.0 Km/h NW 0.0 mm  22.2 °C 32.6 °C
Pastrengo Cornè (VR) 23/07/17 20.35 29.2 °C 61 % 20.9 °C 1008.6 hPa 0.0 Km/h WNW 0.0 mm  21.2 °C 31.4 °C
Pecetto Torinese (TO) 23/07/17 20.46 26.4 °C 68 % 20.0 °C 1013.1 hPa 0.0 Km/h NE 0.0 mm  18.7 °C 32.2 °C
Pedara (CT) 23/07/17 19.30 28.7 °C 30 % 9.4 °C 1013.5 hPa 0.0 Km/h N 0.0 mm  25.6 °C 35.3 °C
Pedemonte (VR) 23/07/17 20.35 30.3 °C 54 % 20.0 °C 1009.6 hPa 0.0 Km/h W 0.0 mm  21.2 °C 34.0 °C
Pian di Castagné (VR) 23/07/17 20.48 27.7 °C 60 % 19.2 °C 1009.4 hPa 6.4 Km/h NW 0.0 mm  23.7 °C 30.4 °C
Pila Valsesia (VC) 23/07/17 20.35 21.6 °C 77 % 17.4 °C 1008.6 hPa 0.0 Km/h --- 0.2 mm  13.4 °C 27.0 °C
Piovà Massaia (AT) 23/07/17 20.30 26.2 °C 66 % 19.3 °C 1008.5 hPa 1.4 Km/h E 0.0 mm  19.6 °C 31.6 °C
Piraino contr. Fiumara (ME) 23/07/17 20.35 26.9 °C 63 % 19.3 °C 1014.9 hPa 3.0 Km/h SW 0.0 mm  23.3 °C 35.1 °C
Pisa zona I Passi (PI) 23/07/17 20.30 27.3 °C 54 % 17.2 °C 1014.3 hPa 0.0 Km/h SSW 0.0 mm  21.7 °C 31.2 °C
Pojana Maggiore Cagnano (VI) 23/07/17 20.29 31.1 °C 49 % 19.1 °C 1009.8 hPa 1.1 Km/h SW 0.0 mm  31.1 °C 32.9 °C
Pomezia (RM) 23/07/17 20.30 28.2 °C 68 % 21.7 °C 1012.8 hPa 0.0 Km/h W 0.0 mm  24.1 °C 31.7 °C
Ponte San Nicolò (PD) 23/07/17 20.46 33.5 °C 42 % 18.8 °C 1009.7 hPa 0.0 Km/h S 0.0 mm  24.3 °C 35.8 °C
Ponte San Pellegrino (MO) 23/07/17 20.29 30.7 °C 43 % 16.7 °C 1000.9 hPa 6.1 Km/h W 0.0 mm  21.8 °C 33.9 °C
Pordenone (PN) 23/07/17 20.25 23.6 °C 84 % 20.7 °C 1010.6 hPa 3.2 Km/h NNW 8.8 mm  22.7 °C 33.3 °C
Pozzolo Formigaro (AL) 23/07/17 20.36 25.8 °C 67 % 19.2 °C 1011.7 hPa 6.5 Km/h SE 0.0 mm  20.3 °C 31.9 °C
Pray (BI) 23/07/17 20.30 24.7 °C 73 % 19.5 °C 1010.0 hPa 3.0 Km/h NNW 1.2 mm  15.3 °C 28.8 °C
Reggello (FI) 23/07/17 20.31 25.6 °C 56 % 16.2 °C 1016.6 hPa 4.8 Km/h SE 0.0 mm  19.2 °C 31.9 °C
Riccione (RN) 23/07/17 19.50 28.2 °C 72 % 22.6 °C 1011.5 hPa 8.0 Km/h SE 0.0 mm  23.3 °C 30.1 °C
Rifugio Bocca di Selva (VR) 23/07/17 20.30 17.3 °C 84 % 14.5 °C 1012.0 hPa 0.0 Km/h N 0.0 mm  15.0 °C 20.4 °C
Rifugio Fiori del Baldo (VR) 23/07/17 19.58 16.3 °C 95 % 15.8 °C 1026.0 hPa 18.4 Km/h W 0.0 mm  0.0 °C 0.0 °C
Rifugio Primaneve (VR) 23/07/17 20.45 14.7 °C 93 % 13.6 °C 1012.4 hPa 19.3 Km/h SW 0.0 mm  13.2 °C 18.0 °C
Rimini (RN) 23/07/17 20.30 28.8 °C 61 % 20.6 °C 1011.5 hPa 0.0 Km/h ESE 0.0 mm  23.9 °C 31.2 °C
Rimini Zona Palas (RN) 23/07/17 20.39 29.0 °C 59 % 20.0 °C 1011.1 hPa 3.2 Km/h SE 0.0 mm  25.3 °C 31.1 °C
Rivalba (TO) 21/07/17 14.21 27.8 °C 64 % 20.4 °C 1013.4 hPa 0.0 Km/h N 0.0 mm  27.8 °C 27.8 °C
Rivalta sul Mincio (MN) 23/07/17 20.32 30.4 °C 55 % 20.4 °C 1009.5 hPa 8.0 Km/h S 0.0 mm  20.6 °C 34.3 °C
Roma Prato della Signora (RM) 23/07/17 20.44 29.7 °C 58 % 20.6 °C 1012.8 hPa 0.0 Km/h NNE 0.0 mm  25.3 °C 36.0 °C
Romano d'Ezzelino Fellette (VI) 23/07/17 20.30 27.6 °C 65 % 20.4 °C 1014.7 hPa 8.9 Km/h NNW 0.0 mm  22.1 °C 32.3 °C
Ronciglione Centro (VT) 23/07/17 20.30 27.2 °C 40 % 12.4 °C 1018.0 hPa 3.9 Km/h WSW 0.0 mm  20.8 °C 33.4 °C
Ronciglione - Ponte Cuzzoli (VT) 23/07/17 20.35 25.9 °C 66 % 19.0 °C 1013.9 hPa 6.4 Km/h W 0.0 mm  20.1 °C 32.7 °C
S. Giovanni Ilarione2 (VR) 23/07/17 20.35 29.6 °C 55 % 19.6 °C 1009.1 hPa 1.6 Km/h E 0.0 mm  21.7 °C 32.6 °C
S. Giovanni Rotondo (FG) 23/07/17 20.35 27.8 °C 50 % 16.4 °C 1012.3 hPa 0.0 Km/h --- 0.0 mm  22.7 °C 33.9 °C
S. Lorenzo di Vittorio Veneto (TV) 23/07/17 20.30 25.1 °C 80 % 21.4 °C 1011.3 hPa 0.0 Km/h NNW 0.3 mm  21.9 °C 27.8 °C
S. Maria di Zevio Loc. 3 Ponti (VR) 23/07/17 20.30 31.3 °C 57 % 21.7 °C 1011.2 hPa 3.0 Km/h SW 0.0 mm  22.2 °C 34.1 °C
S. Maria Maddalena (RO) 23/07/17 20.25 30.9 °C 57 % 21.7 °C 1009.2 hPa 6.5 Km/h SE 0.0 mm  22.2 °C 34.3 °C
S. Martino Lupari (PD) 23/07/17 20.30 28.6 °C 69 % 22.3 °C 563.2 hPa 1.6 Km/h ENE 0.0 mm  22.7 °C 33.4 °C
S. Rocco di Villabalzana (VI) 23/07/17 20.33 29.4 °C 57 % 20.0 °C 1009.7 hPa 3.2 Km/h E 0.0 mm  22.2 °C 35.0 °C
Sacile (PN) 23/07/17 20.40 22.5 °C 88 % 20.4 °C 1010.4 hPa 4.8 Km/h NNE 23.9 mm  21.4 °C 31.4 °C
Salcedo (VI) 23/07/17 20.30 27.5 °C 53 % 17.1 °C 1012.7 hPa 7.6 Km/h N 0.0 mm  21.8 °C 30.4 °C
San Benedetto del Tronto (AP) 23/07/17 20.35 28.4 °C 68 % 21.9 °C 1014.0 hPa 0.0 Km/h SSW 0.0 mm  24.7 °C 33.6 °C
San Cataldo (CL) 23/07/17 20.29 30.2 °C 21 % 5.4 °C 1016.1 hPa 9.3 Km/h NNW 0.0 mm  24.4 °C 37.9 °C
San Giovanni la Punta Trappeto (CT) 23/07/17 20.35 30.0 °C 39 % 14.5 °C 1013.1 hPa 3.2 Km/h NE 0.0 mm  25.3 °C 36.2 °C
San Nazario (VI) 23/07/17 20.41 27.2 °C 61 % 19.0 °C 1008.4 hPa 3.5 Km/h E 0.0 mm  21.7 °C 33.3 °C
San Pietro in Cariano (VR) 23/07/17 20.29 30.0 °C 55 % 20.0 °C 1011.2 hPa 0.6 Km/h E 0.0 mm  22.4 °C 33.4 °C
San Vito (CA) 23/07/17 20.31 28.1 °C 70 % 22.1 °C 1008.6 hPa 0.0 Km/h N 0.0 mm  25.7 °C 36.3 °C
Santarcangelo di Romagna (RN) 23/07/17 20.30 29.4 °C 52 % 18.5 °C 1011.5 hPa 1.7 Km/h NNE 0.0 mm  24.9 °C 34.8 °C
Savelli (KR) 21/07/17 19.39 25.6 °C 50 % 14.4 °C 1012.5 hPa 0.0 Km/h SE 0.0 mm  21.5 °C 29.3 °C
Schio (VI) 23/07/17 20.20 30.1 °C 47 % 17.5 °C 1010.7 hPa 1.6 Km/h NW 0.0 mm  22.2 °C 34.1 °C
Schio Monte Magré (VI) 23/07/17 08.27 25.5 °C 79 % 21.6 °C 0.0 hPa 1.6 Km/h SSE 0.0 mm  20.9 °C 25.5 °C
Selva di Cadore Santa Fosca (BL) 23/07/17 20.30 19.2 °C 74 % 14.5 °C 1010.5 hPa 2.4 Km/h SE 0.0 mm  12.9 °C 22.3 °C
Seremange Erzange (Moselle) 23/07/17 20.30 19.8 °C 52 % 9.7 °C 1014.6 hPa 0.0 Km/h W 0.0 mm  14.7 °C 21.9 °C
Sinnai (CA) 23/07/17 20.25 26.9 °C 84 % 24.0 °C 1014.6 hPa 3.2 Km/h SSE 0.0 mm  24.8 °C 34.3 °C
Soave Borgo Bassano (VR) 23/07/17 20.35 31.1 °C 55 % 20.9 °C 1009.8 hPa 0.0 Km/h SW 0.0 mm  22.3 °C 34.4 °C
Sona Loc. La Colombara (VR) 23/07/17 20.00 30.5 °C 56 % 20.6 °C 1006.5 hPa 3.0 Km/h WSW 0.0 mm  18.6 °C 32.2 °C
Soriso (NO) 21/07/17 04.40 19.2 °C 87 % 16.9 °C 1011.3 hPa 0.0 Km/h W 0.0 mm  19.1 °C 21.2 °C
Staranzano (GO) 23/07/17 20.40 27.3 °C 74 % 22.3 °C 1011.4 hPa 0.0 Km/h SE 0.0 mm  21.4 °C 31.2 °C
Stiore - Monteveglio (BO) 23/07/17 20.30 31.0 °C 41 % 16.2 °C 1007.2 hPa 4.8 Km/h SE 0.0 mm  20.7 °C 34.2 °C
Taio Mollaro (TN) 23/07/17 20.24 26.3 °C 54 % 16.2 °C 1013.0 hPa 0.0 Km/h NE 0.0 mm  16.7 °C 31.2 °C
Taranto (TA) 23/07/17 20.35 28.8 °C 62 % 20.8 °C 1009.0 hPa 5.2 Km/h NW 0.0 mm  25.7 °C 36.2 °C
Todi (PG) 23/07/17 20.35 29.1 °C 46 % 16.2 °C 1012.5 hPa 5.0 Km/h WSW 0.0 mm  21.2 °C 34.5 °C
Tombolo (PD) 23/07/17 20.31 29.2 °C 62 % 21.2 °C 1010.2 hPa 4.3 Km/h NNE 0.0 mm  22.9 °C 34.9 °C
Torino Regio Parco (TO) 23/07/17 20.31 28.6 °C 68 % 22.1 °C 1011.8 hPa 8.5 Km/h E 0.2 mm  20.0 °C 32.2 °C
Torre Annunziata (NA) 23/07/17 20.35 26.0 °C 88 % 23.9 °C 1014.4 hPa 5.6 Km/h WSW 0.0 mm  24.0 °C 28.1 °C
Torremaggiore (FG) 22/07/17 03.48 25.8 °C 43 % 12.3 °C 1010.5 hPa 0.0 Km/h SSE 0.0 mm  25.0 °C 26.9 °C
Torri (FI) 18/07/17 07.15 14.5 °C 58 % 6.3 °C 1019.1 hPa 0.0 Km/h --- 0.0 mm  13.9 °C 19.3 °C
Torrita di Siena (SI) 23/07/17 20.35 29.6 °C 44 % 16.1 °C 1014.1 hPa 4.8 Km/h WSW 0.0 mm  19.6 °C 36.8 °C
Trambileno (TN) 23/07/17 20.31 26.9 °C 49 % 15.0 °C 1018.5 hPa 1.9 Km/h SE 0.0 mm  17.4 °C 31.0 °C
Tregnago Loc. Centro (VR) 23/07/17 20.35 26.8 °C 61 % 18.7 °C 1004.5 hPa 8.0 Km/h W 0.0 mm  22.3 °C 30.2 °C
Trento (TN) 23/07/17 20.31 30.2 °C 42 % 15.9 °C 1008.4 hPa 11.3 Km/h SSW 0.0 mm  21.7 °C 34.2 °C
Treviso (TV) 23/07/17 20.31 28.5 °C 64 % 21.1 °C 1002.3 hPa 3.0 Km/h E 0.9 mm  21.9 °C 33.1 °C
Tuscania (VT) 23/07/17 17.30 30.9 °C 55 % 20.8 °C 1014.4 hPa 0.0 Km/h SW 0.0 mm  21.7 °C 32.2 °C
Valdobbiadene San Pietro di Barbozza (TV) 23/07/17 20.30 25.7 °C 73 % 20.5 °C 1010.2 hPa 16.1 Km/h NE 5.6 mm  21.6 °C 29.1 °C
Valentano (VT) 23/07/17 20.30 25.6 °C 60 % 17.2 °C 1012.9 hPa 9.6 Km/h N 0.0 mm  19.7 °C 31.1 °C
Valenza (AL) 23/07/17 20.42 26.3 °C 63 % 18.7 °C 1009.4 hPa 4.8 Km/h SE 0.0 mm  20.4 °C 30.9 °C
Valli del Pasubio loc. Gisbenti (VI) 23/07/17 20.30 21.8 °C 32 % 4.4 °C 967.0 hPa 4.2 Km/h NW 0.0 mm  18.8 °C 29.8 °C
Varese Ligure (SP) 23/07/17 20.31 24.1 °C 19 % -0.9 °C 1035.0 hPa 7.0 Km/h SO 0.0 mm  16.0 °C 28.1 °C
Vasto (CH) 23/07/17 20.31 29.8 °C 10 % -5.1 °C 1012.7 hPa 0.0 Km/h --- 0.0 mm  21.4 °C 32.5 °C
Vattaro fraz. Pian dei Pradi (TN) 23/07/17 20.28 22.5 °C 54 % 12.7 °C 1010.7 hPa 4.1 Km/h SSW 0.0 mm  16.7 °C 28.2 °C
Verona Bgo Venezia (iz3sly) (VR) 23/07/17 20.38 30.0 °C 57 % 20.6 °C 1008.7 hPa 0.0 Km/h SE 0.0 mm  22.2 °C 33.8 °C
Verona L'Arena (VR) 23/07/17 20.30 31.8 °C 52 % 20.6 °C 1010.0 hPa 5.0 Km/h WSW 0.0 mm  24.8 °C 33.7 °C
Vestenanova (VR) 23/07/17 20.30 25.4 °C 61 % 17.4 °C 1009.6 hPa 0.0 Km/h SW 0.0 mm  19.3 °C 29.9 °C
Vicenza Campedello (VI) 23/07/17 20.35 30.7 °C 54 % 20.6 °C 1010.9 hPa 0.0 Km/h SSE 0.0 mm  20.2 °C 33.2 °C
Vicenza Moracchino (VI) 23/07/17 20.31 31.0 °C 53 % 20.3 °C 1008.9 hPa 6.4 Km/h S 0.0 mm  22.2 °C 33.9 °C
Vicenza Pecori Giraldi (VI) 23/07/17 20.30 32.3 °C 57 % 22.7 °C 1014.8 hPa 2.2 Km/h SE 0.0 mm  -32.2 °C 36.0 °C
Vicenza S. Lazzaro (VI) 23/07/17 20.31 31.7 °C 51 % 20.6 °C 1008.5 hPa 3.0 Km/h SW 0.0 mm  23.6 °C 34.3 °C
Vicenza San Gaetano (VI) 23/07/17 20.31 31.3 °C 51 % 20.0 °C 1009.5 hPa 0.3 Km/h SSW 0.2 mm  21.1 °C 34.1 °C
Vidor (TV) 23/07/17 20.36 25.9 °C 73 % 20.7 °C 1010.0 hPa 12.4 Km/h E 0.0 mm  21.3 °C 33.0 °C
Vieste (FG) 23/07/17 20.31 27.6 °C 68 % 21.1 °C 1013.0 hPa 5.6 Km/h NW 0.0 mm  24.4 °C 28.4 °C
Vigasio (VR) 23/07/17 20.20 32.3 °C 53 % 21.5 °C 1008.3 hPa 1.6 Km/h WNW 0.0 mm  22.6 °C 34.4 °C
Viozene Toria (CN) 23/07/17 18.50 19.5 °C 81 % 16.2 °C 1008.8 hPa 2.0 Km/h NW 0.0 mm  15.2 °C 24.0 °C
Viterbo Santa Barbara (VT) 23/07/17 20.39 26.5 °C 58 % 17.6 °C 1015.1 hPa 0.0 Km/h SSW 0.0 mm  20.1 °C 33.1 °C
Vitorchiano Pallone (VT) 23/07/17 19.10 29.9 °C 54 % 19.6 °C 1013.0 hPa 11.3 Km/h SW 0.0 mm  20.3 °C 33.2 °C
Vittorio Veneto (TV) 23/07/17 20.35 24.3 °C 81 % 20.8 °C 1010.0 hPa 0.0 Km/h SSE 5.8 mm  23.1 °C 30.9 °C
Vittorio Veneto Parco Fenderl (TV) 23/07/17 20.40 24.5 °C 70 % 18.7 °C 1012.4 hPa 0.0 Km/h NNW 0.5 mm  22.7 °C 30.4 °C
Volpago del Montello (TV) 23/07/17 20.30 25.8 °C 76 % 21.2 °C 1010.7 hPa 0.0 Km/h --- 0.0 mm  21.8 °C 30.6 °C
 
(*) = Precipitazioni nelle ultime 24h.
Dati non aggiornati nell'ultima ora.
   
In collaborazione con:
 
Top! Top!